Time,TemperatureF,DewpointF,PressureIn,WindDirection,WindDirectionDegrees,WindSpeedMPH,WindSpeedGustMPH,Humidity,HourlyPrecipIn,Conditions,Clouds,dailyrainin,SoftwareType,DateUTC
2013-07-22 08:58:00,68.7,58.1,30.04,NE,45,0.0,0.0,69,0.00,,,0.00,WUHU216HW,2013-07-22 06:58:00,
2013-07-22 09:07:00,69.4,58.3,30.04,ESE,113,2.2,2.2,68,0.00,,,0.00,WUHU216HW,2013-07-22 07:07:00,
2013-07-22 09:12:00,69.9,58.8,30.05,East,90,0.0,2.2,68,0.00,,,0.00,WUHU216HW,2013-07-22 07:12:00,
2013-07-22 09:17:00,70.5,58.9,30.05,SE,135,1.3,1.3,67,0.00,,,0.00,WUHU216HW,2013-07-22 07:17:00,
2013-07-22 09:22:00,71.4,59.8,30.06,South,180,0.0,2.9,67,0.00,,,0.00,WUHU216HW,2013-07-22 07:22:00,
2013-07-22 09:55:00,75.9,60.0,30.06,NNW,338,0.0,0.0,58,0.00,,,0.00,WUHU216HW,2013-07-22 07:55:00,
2013-07-22 10:00:00,75.9,60.0,30.07,SSE,158,0.0,3.5,58,0.00,,,0.00,WUHU216HW,2013-07-22 08:00:00,
2013-07-22 10:05:00,76.1,60.7,30.07,ESE,113,0.0,3.5,59,0.00,,,0.00,WUHU216HW,2013-07-22 08:05:00,
2013-07-22 11:41:00,80.4,60.0,30.06,ENE,68,0.0,0.0,50,0.00,,,0.00,WUHU216HW,2013-07-22 09:41:00,
2013-07-22 11:51:00,80.7,59.8,30.07,SW,225,0.0,4.2,49,0.00,,,0.00,WUHU216HW,2013-07-22 09:51:00,
2013-07-22 14:53:00,84.0,59.0,30.02,SSW,203,2.0,2.0,42,0.00,,,0.00,WUHU216HW,2013-07-22 12:53:00,
2013-07-22 15:03:00,84.9,60.5,29.99,South,180,2.2,6.2,44,0.00,,,0.00,WUHU216HW,2013-07-22 13:03:00,
2013-07-22 15:08:00,85.2,60.8,30.00,SW,225,0.0,7.6,44,0.00,,,0.00,WUHU216HW,2013-07-22 13:08:00,
2013-07-22 15:39:00,84.5,58.9,30.01,SSW,203,0.0,0.0,42,0.00,,,0.00,WUHU216HW,2013-07-22 13:39:00,
2013-07-22 15:44:00,84.3,57.5,30.01,North,0,0.0,0.8,40,0.00,,,0.00,WUHU216HW,2013-07-22 13:44:00,
2013-07-22 15:49:00,84.3,58.8,30.00,South,180,2.0,4.6,42,0.00,,,0.00,WUHU216HW,2013-07-22 13:49:00,
2013-07-22 20:33:00,69.2,54.8,29.97,NNW,338,0.0,0.0,60,0.00,,,0.00,WUHU216HW,2013-07-22 18:33:00,
2013-07-22 20:43:00,68.1,54.6,29.97,WNW,293,0.0,0.0,62,0.00,,,0.00,WUHU216HW,2013-07-22 18:43:00,
2013-07-22 20:48:00,67.6,54.5,29.99,WNW,293,0.0,0.0,63,0.00,,,0.00,WUHU216HW,2013-07-22 18:48:00,
2013-07-22 21:48:00,67.1,53.4,29.97,WNW,293,0.0,0.0,62,0.00,,,0.00,WUHU216HW,2013-07-22 19:48:00,
2013-07-22 21:53:00,66.3,53.3,29.98,NW,315,0.0,0.0,63,0.00,,,0.00,WUHU216HW,2013-07-22 19:53:00,
2013-07-22 21:58:00,65.8,53.2,29.99,NE,45,0.0,0.0,64,0.00,,,0.00,WUHU216HW,2013-07-22 19:58:00,